Flag for Micronesia Weather past 2 weeks in Palikir, Ponape, Micronesia

Now
81 °F

Partly cloudy.


Feels Like: 86 °F
Forecast: 79 / 84 °F
Wind: 6 mph from Northeast

Location: Pohnpei

Current Time: Jan 29, 2015 at 2:17:48 AM

Latest Report: Jan 29, 2015 at 1:50 AM


Visibility: 15 mi

Pressure: 29.76 "Hg

Humidity: 76%

Dew point: 73 °F

Location of PalikirLocation

Historic Weather in Palikir — Graph

°F

Palikir temperature yesterday

Maximum temperature yesterday: 85 °F (at 11:54 AM)
Minimum temperature yesterday: 80 °F (at 6:54 AM)
Average temperature yesterday: 82 °F

Past Weeks' High & Low Weather Summary

 TemperatureHumidityPressure
High89 °F (Jan 15, 4:55 PM)99% (Jan 22, 2:50 AM)29.97 "Hg (Jan 22, 2:50 AM)
Low72 °F (Jan 25, 4:51 AM)57% (Jan 15, 4:55 PM)29.73 "Hg (Jan 28, 3:54 PM)
Average82 °F79%29.87 "Hg
* Reported Jan 14 12:50 AM — Jan 29 12:50 AM, Palikir, Weather by CustomWeather, © 2014

Note: Actual official high and low records may vary slightly from our data, if they occured in-between our weather recording intervals... More about our weather records

Advertising

Palikir weather history for previous 24 hours

 ConditionsComfort  
Time TempWeatherWind HumidityBarometerVisibility
12:50 AM
Jan 29
81 °FPartly cloudy.6 mph76%29.78 "Hg15 mi
11:54 PM
Jan 28
81 °FMostly cloudy.8 mph72%29.78 "Hg15 mi
10:52 PM82 °FMostly cloudy.9 mph73%29.79 "Hg15 mi
9:51 PM82 °FOvercast.7 mph74%29.80 "Hg15 mi
8:51 PM81 °FOvercast.6 mph75%29.80 "Hg15 mi
7:52 PM81 °FOvercast.8 mph72%29.77 "Hg15 mi
6:52 PM82 °FPassing clouds.6 mph72%29.75 "Hg15 mi
5:52 PM82 °FOvercast.9 mph72%29.75 "Hg15 mi
4:50 PM83 °FOvercast.7 mph69%29.74 "Hg15 mi
3:54 PM84 °FMore clouds than sun.9 mph69%29.73 "Hg15 mi
2:52 PM85 °FPartly sunny.9 mph70%29.74 "Hg15 mi
1:52 PM84 °FScattered clouds.12 mph65%29.76 "Hg15 mi
12:54 PM85 °FScattered clouds.12 mph63%29.80 "Hg15 mi
11:54 AM85 °FScattered clouds.7 mph63%29.83 "Hg15 mi
10:54 AM84 °FBroken clouds.9 mph62%29.86 "Hg15 mi
9:58 AM84 °FBroken clouds.7 mph59%29.86 "Hg15 mi
8:52 AM84 °FBroken clouds.9 mph65%29.85 "Hg15 mi
7:52 AM81 °FBroken clouds.7 mph72%29.82 "Hg15 mi
6:54 AM80 °FPartly sunny.8 mph71%29.80 "Hg15 mi
5:52 AM80 °FMostly cloudy.7 mph71%29.78 "Hg15 mi
5:01 AM81 °FMostly cloudy.8 mph79%29.77 "Hg15 mi
3:52 AM81 °FMostly cloudy.5 mph72%29.76 "Hg15 mi
2:53 AM80 °FMostly cloudy.3 mph76%29.77 "Hg15 mi
Weather by CustomWeather, © 2014

See weather overviewHow to use our weather pages